Regional Weather Roundup
Issued by NWS

Home | Current Version | Previous Version | Text Only | Print | Product List | Glossary On
Versions: 1 2 3 4 5 6 7 8 9 10 11 12 13 14 15 16 17 18 19 20 21 22 23 24 25 26 27 28 29 30 31 32 33 34 35 36 37 38 39 40 41 42 43 44 45 46 47 48 49 50
000
ASUS45 KREV 240710
RWRNV
NEVADA REGIONAL WEATHER ROUNDUP
NATIONAL WEATHER SERVICE RENO NV
1200 AM PDT TUE OCT 24 2017

NOTE: "FAIR" INDICATES FEW OR NO CLOUDS BELOW 12,000 FEET WITH NO
SIGNIFICANT WEATHER AND/OR OBSTRUCTIONS TO VISIBILITY.

NVZ001-003-004-240800-
WESTERN NEVADA

CITY           SKY/WX    TMP DP  RH WIND       PRES   REMARKS
RENO           CLEAR     51  41  68 CALM      30.61S
CARSON CITY    FAIR      48  37  66 CALM      30.63S
MINDEN         FAIR      41  32  70 SE6       30.63S
SLIDE MTN        N/A     41  36  81 E15         N/A
FALLON         CLEAR     46  33  60 W5        30.59S
LOVELOCK       CLEAR     45  33  63 CALM      30.60S
HAWTHORNE      CLEAR     54  37  54 SW6       30.59S
$$

NVZ002-CAZ072-073-240800-
NORTHERN AND CENTRAL SIERRA

CITY           SKY/WX    TMP DP  RH WIND       PRES   REMARKS
S. LAKE TAHOE  CLEAR     39  35  86 S5        30.65S
TRUCKEE        CLEAR     36  34  93 CALM      30.65S
SQUAW VLY 8000 NOT AVBL
SUSANVILLE     CLEAR     45  39  81 W5        30.61S
BLUE CANYON    CLEAR     64  34  32 NE9G20    30.48F
MAMMOTH LAKES  FAIR      46  31  56 W6        30.69S
BRIDGEPORT     FAIR      35  27  72 CALM      30.69S
$$

NVZ030-031-036-240800-
NORTHERN NEVADA

CITY           SKY/WX    TMP DP  RH WIND       PRES   REMARKS
ELKO           CLEAR     41  28  60 CALM      30.66S
WINNEMUCCA     CLEAR     51  32  48 NE5       30.65R
WENDOVER       PTCLDY    46  34  62 CALM      30.66S
$$

NVZ035-037-240800-
CENTRAL NEVADA

CITY           SKY/WX    TMP DP  RH WIND       PRES   REMARKS
ELY            CLEAR     45  35  68 NE13      30.67S
EUREKA           N/A     34  27  75 SW3       30.67S
$$

NVZ013-014-240800-
SOUTH CENTRAL NEVADA

CITY           SKY/WX    TMP DP  RH WIND       PRES   REMARKS
TONOPAH        CLEAR     55  34  45 N16       30.60R
$$

NVZ017-020-022-240800-
SOUTHERN NEVADA

CITY           SKY/WX    TMP DP  RH WIND       PRES   REMARKS
LAS VEGAS      CLEAR     77  38  24 N10       30.32R
N. LAS VEGAS   CLEAR     75  34  22 N8        30.32R
NELLIS AFB     CLEAR     77  37  23 N18G26    30.31R
HENDERSON      CLEAR     71  37  28 NE6       30.35R
MERCURY        CLEAR     68  34  28 NE9       30.40R
$$



USA.gov is the U.S. government's official web portal to all federal, state and local government web resources and services.